Wind_Speed
22 20 20 14 10 8 6 3 4 6 6 5 2 3 1 4 6 8 7 11 13 7 10 7 6 11 11 8 5 9 6 4 8 9 9 9 7 5 3 3 3 4 5 5 6 6 7 9 9
24 24 22 15 12 10 8 5 3 5 8 5 1 2 2 5 7 8 8 7 7 8 8 7 10 11 11 9 9 11 10 9 9 8 5 4 1 1 3 4 4 4 4 5 6 6 8 9 9
26 25 24 17 15 12 9 7 5 5 9 5 1 2 3 5 7 8 7 6 5 4 6 6 9 12 16 14 16 13 11 11 9 6 3 2 0 2 4 5 5 5 5 5 6 8 9 9 9
26 27 23 19 18 16 10 7 8 7 8 5 4 4 5 8 8 8 7 7 6 6 6 6 11 14 18 16 16 14 13 10 6 2 2 4 5 6 4 5 4 4 5 5 6 8 9 10 10
26 27 24 20 20 16 14 10 11 10 9 7 7 9 8 10 11 11 9 8 7 9 11 10 16 22 24 20 14 17 10 6 7 9 9 9 7 6 4 4 4 5 6 7 8 9 10 10 10
26 27 23 22 20 19 16 13 13 12 12 10 9 11 10 10 11 11 10 8 11 13 12 17 23 24 20 16 14 13 12 12 11 10 9 8 7 5 5 4 4 5 5 5 6 7 8 8 9
22 29 25 24 19 19 18 16 15 13 15 13 11 12 11 10 11 10 8 11 14 15 15 15 21 21 20 18 17 15 13 12 9 8 7 6 5 4 3 3 3 3 3 4 5 6 6 7 8
22 31 27 27 21 22 21 19 17 17 18 16 14 15 14 12 12 14 13 14 15 15 15 15 17 21 21 18 15 14 12 11 9 7 5 4 3 3 3 4 3 3 3 3 4 6 6 7 8
26 28 21 29 25 23 25 23 21 21 22 20 18 17 17 15 14 14 14 14 16 17 16 16 15 16 18 17 15 13 11 8 6 4 3 3 3 4 5 5 4 4 4 4 5 7 8 9 10
22 17 26 23 32 29 29 27 25 24 24 23 21 21 20 18 15 15 15 16 16 15 14 14 11 10 11 13 11 10 8 6 4 3 3 4 4 5 6 7 7 7 7 7 7 7 8 9 10
26 23 21 27 26 30 31 29 27 26 26 27 25 23 23 21 18 17 19 18 15 13 13 13 12 10 8 7 8 7 6 5 5 3 3 3 4 4 5 5 6 6 6 7 7 7 7 9 10
31 27 21 25 18 31 33 33 29 30 33 29 26 24 22 21 21 21 24 22 18 16 13 13 11 11 9 7 7 6 5 4 2 1 2 3 3 4 4 4 4 5 6 7 8 9 10 12 14
31 31 27 25 29 26 32 34 34 33 36 32 29 26 26 24 23 22 22 21 19 17 15 12 11 8 8 5 3 3 2 1 0 1 2 3 4 5 5 6 7 8 8 9 11 12 13 16 18
35 36 30 27 29 26 24 37 38 36 36 34 31 29 29 27 27 26 25 24 22 19 16 14 11 8 6 5 3 2 1 2 2 3 4 5 6 7 8 9 10 11 13 14 15 17 19 20 21
41 39 30 31 29 30 22 38 36 38 38 35 33 32 31 30 27 28 29 26 23 22 18 17 14 11 9 7 7 6 6 6 5 6 8 8 9 10 12 13 14 15 16 17 19 21 23 25 25
43 44 41 36 32 36 33 27 36 39 39 38 36 35 33 31 31 30 30 29 25 23 23 20 17 15 13 12 11 11 11 10 9 10 11 11 13 14 15 16 18 20 21 23 24 25 27 28 29
45 46 45 38 35 36 31 20 39 41 39 40 38 36 35 34 33 31 31 31 29 28 25 22 21 19 17 16 16 16 15 15 13 14 13 14 16 17 18 19 20 22 24 26 28 29 30 32 32
44 42 40 36 37 39 34 31 27 38 40 42 41 40 38 35 33 35 33 33 31 29 27 25 24 22 21 20 21 19 19 18 17 17 17 17 19 20 21 22 23 25 26 27 29 31 31 33 34
44 43 44 43 42 43 41 37 33 41 48 47 46 44 40 36 38 39 36 34 33 29 28 27 27 25 24 23 23 22 21 22 21 21 20 20 20 21 23 24 25 27 28 29 30 31 32 34 36
45 43 43 42 41 48 46 43 44 44 42 53 51 50 46 43 44 42 39 36 35 33 32 31 30 27 26 26 27 25 23 24 24 24 23 23 24 23 25 26 28 29 29 31 32 33 34 36 37
44 42 46 45 43 44 49 50 49 43 47 54 56 54 53 50 48 45 42 39 39 36 34 34 32 30 29 29 28 27 26 25 26 26 24 25 25 26 27 28 30 31 32 33 34 35 36 39 40
44 45 46 49 53 47 49 55 52 49 43 44 59 58 56 53 50 48 44 41 39 37 37 36 35 33 31 30 29 28 28 27 28 26 26 26 27 28 29 31 33 34 35 36 36 37 40 41 42
43 45 48 51 55 53 50 52 52 51 42 49 56 63 60 57 53 50 47 43 42 40 38 37 37 34 32 31 31 31 30 31 30 28 29 29 30 31 33 34 35 36 37 38 39 41 42 44 45
47 48 47 50 53 58 51 54 56 50 49 50 48 67 64 59 55 52 50 46 45 41 40 39 38 36 34 33 33 33 32 33 32 31 32 33 33 34 36 37 38 40 40 40 41 43 45 47 48
48 49 50 54 56 53 51 60 56 49 47 53 54 61 68 63 59 56 53 49 48 45 45 43 41 39 37 35 36 35 35 35 34 34 34 36 37 38 40 40 41 40 41 42 44 45 47 49 50
57 61 58 55 53 47 51 55 54 57 49 41 46 59 67 64 61 57 53 52 51 48 46 44 43 42 40 38 38 38 37 38 37 37 38 39 40 41 43 43 42 41 42 43 46 47 49 50 51
60 61 55 62 60 54 55 47 47 58 52 50 44 56 64 60 58 56 53 52 53 51 48 47 47 45 42 41 40 40 40 40 41 41 42 43 43 44 45 45 45 44 45 45 46 47 49 53 56
60 55 58 60 61 58 56 52 46 56 53 49 46 50 59 59 54 54 53 50 50 50 50 50 50 48 45 44 42 43 42 43 44 45 45 45 46 45 46 45 45 46 46 46 49 51 55 58 57
56 57 62 63 60 58 55 52 46 56 54 53 48 49 53 54 51 53 53 48 50 50 48 49 50 49 46 46 45 46 46 46 46 47 47 47 47 47 46 45 46 45 46 51 55 57 60 58 56
50 48 48 61 64 64 63 53 51 57 56 55 47 47 51 53 55 54 50 48 50 50 48 48 50 50 48 47 48 49 47 47 48 48 47 48 48 48 47 45 45 48 52 56 57 58 57 53 50
Wind_Direction
217 232 234 219 249 244 257 275 295 296 288 280 312 35 10 108 95 83 86 68 60 103 131 144 174 187 166 145 149 178 182 143 124 110 95 94 82 52 28 355 328 340 350 354 8 2 1 360 355
216 233 235 225 240 247 245 251 246 277 272 266 256 101 166 114 93 98 103 87 83 98 115 129 147 151 157 153 134 136 150 137 114 107 98 99 112 17 12 3 8 26 32 9 354 358 10 13 11
218 230 233 228 235 238 231 239 228 247 260 255 101 109 176 132 109 107 102 106 87 124 143 148 147 157 148 135 143 139 139 134 130 144 163 188 282 34 49 62 51 36 25 19 3 6 9 9 6
222 230 232 229 230 230 230 230 234 228 244 232 131 122 130 123 119 112 105 107 86 96 123 169 156 154 147 140 144 153 155 141 151 146 126 116 105 99 84 78 63 42 33 22 13 12 11 9 6
227 229 229 231 228 233 228 220 226 222 229 214 144 125 118 113 113 115 119 116 93 106 119 126 136 131 131 131 128 152 141 137 124 115 114 117 116 106 89 68 59 49 41 23 18 17 21 15 12
233 227 231 235 226 229 226 220 216 224 225 210 158 139 128 120 119 118 126 116 97 114 121 124 129 130 129 126 129 131 126 122 120 121 126 125 118 109 92 76 59 54 48 28 23 21 24 26 22
241 225 233 239 229 231 224 223 212 222 220 206 177 155 143 141 133 127 128 120 111 114 116 118 123 123 122 123 124 125 126 123 124 123 119 108 101 89 68 42 23 17 23 6 358 358 3 3 1
259 226 231 239 228 228 222 223 208 219 216 208 188 161 152 148 142 135 135 128 123 120 117 117 123 126 128 126 126 129 129 129 128 128 121 104 82 50 23 6 357 356 3 360 347 350 353 354 360
242 243 242 235 232 226 220 216 211 211 217 205 189 171 160 160 154 148 146 141 132 130 126 124 126 127 130 132 134 134 133 129 124 122 100 62 28 14 15 10 16 21 16 5 358 357 357 7 18
234 248 250 244 236 225 222 216 211 205 213 207 193 182 170 171 171 163 159 155 147 145 139 134 133 130 136 137 140 138 137 137 132 109 93 83 64 40 30 27 29 31 30 27 23 24 19 15 15
233 234 256 244 249 226 223 220 211 207 210 209 198 193 177 177 179 175 169 166 163 160 153 145 140 132 127 131 144 149 149 141 130 117 97 61 47 46 32 26 24 27 29 25 19 10 1 352 347
235 237 246 259 242 234 220 227 214 203 211 210 201 200 191 188 187 184 178 177 176 169 171 156 150 139 124 110 104 109 120 133 124 87 29 360 353 360 6 9 3 2 356 349 342 337 334 332 331
238 238 242 245 252 251 224 227 223 207 210 210 204 203 207 201 192 191 188 185 186 185 183 181 167 164 145 128 100 85 104 110 211 256 295 305 311 320 318 317 320 323 322 321 318 315 317 320 321
241 237 239 242 242 237 234 223 224 216 215 209 210 210 212 208 201 194 197 197 194 195 196 199 198 195 188 178 191 239 272 258 276 286 283 287 294 298 301 306 310 314 316 318 316 315 316 317 318
237 236 239 235 240 240 268 224 223 221 219 215 214 214 212 214 211 203 203 203 202 205 204 211 215 214 226 238 238 252 265 275 279 278 284 288 291 296 302 307 313 315 313 311 310 311 311 311 312
241 239 234 235 246 246 258 240 220 223 223 220 217 217 215 213 215 212 204 207 209 213 216 216 223 231 235 237 257 267 269 268 270 277 282 286 288 294 298 303 307 309 309 309 308 307 307 307 309
241 239 237 231 240 249 253 252 223 226 225 225 222 220 216 213 215 217 215 216 212 217 221 226 229 232 242 252 260 264 266 270 271 270 275 281 284 288 293 298 300 301 303 304 306 306 307 308 308
248 252 251 248 244 248 250 246 241 230 233 230 226 220 218 215 214 219 221 221 222 223 227 234 239 242 246 254 259 261 265 268 269 271 273 279 285 290 293 296 298 299 299 300 301 303 305 305 306
247 245 243 240 232 241 246 243 240 229 236 236 229 226 222 220 221 223 223 227 233 233 238 241 249 251 258 260 260 262 264 270 275 277 281 280 282 286 290 292 293 294 296 298 299 301 303 302 304
251 246 245 242 238 243 242 241 237 241 245 232 230 228 224 222 227 226 227 229 234 236 239 245 248 254 254 259 260 264 267 273 274 276 279 282 284 285 287 289 291 292 295 296 297 299 300 301 302
250 251 250 252 250 242 242 243 245 239 247 233 228 229 229 224 226 229 228 229 233 237 242 245 245 246 249 254 260 263 265 266 269 274 278 280 283 286 287 290 292 294 294 294 298 299 301 301 301
240 246 244 249 251 249 245 243 243 244 248 244 230 232 231 232 231 233 233 235 237 238 240 244 247 248 251 254 258 260 261 262 265 270 274 278 280 283 286 287 289 291 294 295 296 298 299 300 300
229 233 238 241 245 246 247 250 242 247 250 246 238 235 233 234 234 236 237 237 238 239 241 244 248 249 250 250 256 258 262 265 267 272 275 278 280 282 284 287 289 291 293 294 296 297 297 298 299
232 229 239 241 247 249 254 254 244 245 258 256 254 236 236 235 236 237 239 239 239 240 243 245 249 251 252 252 254 258 260 265 268 272 276 279 280 282 285 288 289 291 292 293 294 295 297 299 300
226 229 235 244 244 255 256 254 254 253 262 252 252 236 236 233 235 235 236 236 238 238 241 242 245 249 254 256 258 261 263 266 270 274 277 280 282 284 285 286 287 289 291 292 293 295 296 298 301
234 234 237 243 253 261 258 259 255 258 261 256 257 237 232 236 236 239 240 239 239 240 242 246 248 250 252 255 259 262 265 270 273 276 277 277 280 282 283 284 286 287 288 291 293 295 298 300 301
233 232 241 243 244 248 252 259 255 258 261 263 265 244 234 236 237 241 241 241 243 244 245 247 250 252 254 255 257 262 265 270 273 275 276 278 279 280 282 283 285 287 289 290 294 297 300 302 304
243 245 243 241 240 245 252 258 261 257 258 255 255 246 238 240 239 242 245 245 244 245 246 248 251 252 255 257 259 263 266 269 272 272 274 275 277 278 281 282 284 285 287 290 296 300 304 305 304
244 246 246 244 242 245 250 253 257 254 252 252 258 249 242 238 241 242 241 244 245 245 246 248 250 252 255 258 260 263 265 266 268 270 272 274 275 277 277 280 281 285 288 295 297 300 304 301 301
245 249 252 249 252 251 243 246 252 250 252 252 255 249 245 242 241 241 241 242 247 248 247 249 250 252 255 257 259 262 263 265 267 268 268 270 272 275 276 278 284 289 297 301 302 301 300 299 299
Height
5856 5857 5860 5861 5866 5864 5864 5865 5865 5865 5867 5866 5864 5863 5864 5864 5863 5864 5862 5860 5858 5857 5857 5858 5859 5860 5863 5866 5867 5869 5872 5873 5874 5875 5877 5878 5878 5879 5880 5880 5880 5879 5879 5879 5878 5878 5877 5877 5876
5853 5855 5858 5859 5863 5864 5864 5865 5864 5866 5867 5866 5865 5864 5864 5865 5863 5862 5862 5863 5861 5860 5859 5859 5860 5861 5863 5866 5868 5870 5872 5874 5874 5875 5877 5878 5879 5879 5879 5880 5880 5880 5880 5880 5879 5878 5878 5877 5876
5851 5853 5856 5857 5861 5863 5863 5865 5864 5865 5867 5866 5865 5865 5865 5865 5864 5864 5865 5864 5863 5861 5860 5862 5862 5863 5864 5866 5869 5871 5873 5874 5874 5876 5877 5878 5879 5879 5880 5880 5881 5881 5881 5880 5879 5879 5878 5878 5877
5848 5851 5853 5856 5860 5862 5863 5864 5864 5865 5866 5866 5865 5866 5867 5865 5865 5865 5866 5866 5865 5863 5861 5862 5862 5863 5864 5867 5870 5872 5874 5874 5876 5876 5877 5878 5879 5880 5880 5881 5881 5881 5881 5880 5880 5879 5879 5878 5877
5845 5847 5850 5853 5858 5859 5862 5862 5865 5863 5865 5867 5866 5866 5868 5866 5866 5866 5868 5867 5866 5864 5864 5864 5862 5864 5866 5867 5869 5872 5874 5875 5876 5877 5878 5879 5880 5881 5881 5882 5882 5882 5882 5881 5880 5880 5880 5879 5878
5842 5845 5848 5851 5854 5856 5860 5862 5864 5864 5865 5866 5867 5867 5868 5868 5868 5868 5869 5868 5867 5867 5868 5867 5864 5866 5869 5869 5872 5873 5875 5876 5877 5878 5880 5880 5880 5881 5881 5882 5883 5883 5882 5881 5880 5880 5880 5880 5879
5839 5842 5845 5847 5852 5855 5858 5862 5862 5864 5865 5866 5867 5867 5868 5869 5869 5870 5871 5870 5869 5870 5871 5872 5870 5869 5871 5873 5874 5875 5877 5878 5879 5880 5881 5882 5882 5882 5883 5883 5883 5883 5883 5882 5881 5880 5880 5880 5879
5835 5838 5840 5843 5849 5853 5855 5860 5861 5863 5865 5865 5866 5867 5868 5870 5870 5870 5872 5872 5872 5873 5874 5875 5874 5872 5872 5875 5876 5877 5879 5880 5881 5882 5882 5882 5883 5883 5884 5884 5884 5884 5883 5883 5881 5881 5880 5879 5878
5830 5834 5837 5840 5846 5849 5851 5854 5858 5860 5864 5864 5865 5867 5868 5870 5871 5872 5874 5875 5875 5875 5876 5877 5878 5878 5876 5877 5878 5880 5880 5882 5882 5883 5883 5884 5884 5884 5884 5884 5884 5884 5883 5883 5882 5881 5880 5880 5880
5824 5829 5834 5836 5841 5844 5848 5850 5855 5858 5861 5864 5864 5865 5867 5868 5871 5872 5874 5876 5877 5877 5877 5878 5880 5881 5879 5879 5880 5881 5882 5882 5883 5884 5884 5884 5884 5884 5884 5884 5884 5884 5883 5883 5882 5882 5881 5880 5880
5823 5825 5828 5833 5837 5840 5844 5848 5851 5856 5860 5861 5863 5864 5865 5868 5870 5871 5874 5876 5878 5879 5879 5879 5880 5881 5882 5882 5881 5881 5882 5883 5884 5884 5885 5885 5885 5885 5884 5884 5884 5884 5884 5883 5883 5883 5882 5881 5880
5821 5823 5825 5829 5834 5837 5842 5845 5848 5851 5854 5859 5862 5864 5866 5867 5869 5870 5871 5874 5877 5878 5880 5879 5881 5881 5882 5883 5883 5884 5884 5884 5884 5885 5885 5886 5886 5886 5885 5885 5884 5884 5884 5883 5883 5883 5882 5880 5879
5816 5820 5823 5825 5830 5834 5837 5844 5845 5848 5850 5855 5860 5862 5864 5864 5867 5870 5873 5875 5877 5878 5879 5880 5879 5882 5880 5882 5883 5884 5884 5885 5884 5884 5884 5885 5884 5884 5885 5885 5884 5884 5883 5882 5882 5881 5880 5880 5878
5812 5817 5819 5821 5825 5828 5832 5838 5843 5845 5849 5852 5856 5858 5861 5862 5865 5867 5870 5873 5874 5877 5878 5880 5880 5881 5881 5880 5882 5882 5883 5884 5885 5884 5884 5883 5883 5883 5883 5883 5883 5883 5883 5882 5881 5879 5878 5876 5875
5805 5809 5812 5815 5818 5822 5826 5831 5840 5843 5845 5849 5853 5855 5858 5860 5864 5864 5866 5870 5872 5873 5876 5878 5878 5879 5880 5881 5881 5881 5881 5881 5882 5883 5883 5883 5882 5882 5882 5882 5881 5880 5879 5878 5878 5877 5875 5874 5872
5797 5804 5805 5809 5811 5815 5822 5828 5834 5837 5842 5844 5847 5851 5854 5858 5858 5862 5863 5866 5868 5871 5871 5874 5876 5877 5878 5878 5879 5879 5879 5879 5879 5880 5881 5881 5881 5880 5880 5879 5878 5877 5876 5875 5874 5873 5871 5870 5868
5790 5794 5800 5806 5807 5809 5816 5824 5827 5831 5837 5840 5843 5847 5850 5852 5856 5859 5860 5863 5863 5866 5868 5871 5872 5873 5875 5876 5876 5876 5877 5877 5877 5877 5876 5877 5877 5877 5876 5876 5875 5874 5873 5872 5871 5869 5867 5865 5863
5787 5792 5798 5805 5808 5807 5810 5817 5820 5825 5830 5836 5839 5841 5844 5849 5853 5853 5855 5858 5860 5862 5864 5867 5869 5870 5870 5873 5874 5873 5873 5873 5874 5874 5873 5873 5873 5873 5873 5872 5872 5870 5868 5867 5865 5864 5862 5859 5857
5779 5783 5788 5794 5798 5798 5803 5805 5813 5817 5819 5827 5833 5837 5840 5846 5845 5848 5850 5854 5857 5858 5861 5861 5864 5864 5866 5867 5868 5869 5869 5869 5870 5870 5869 5869 5868 5869 5868 5867 5866 5865 5864 5862 5860 5858 5857 5854 5852
5770 5774 5779 5783 5788 5789 5793 5796 5801 5807 5813 5818 5825 5828 5833 5836 5837 5841 5845 5849 5853 5853 5855 5858 5860 5861 5861 5862 5862 5864 5864 5864 5864 5864 5864 5864 5864 5863 5863 5862 5861 5859 5858 5856 5854 5852 5849 5847 5844
5763 5767 5771 5774 5776 5782 5783 5785 5791 5800 5805 5810 5815 5821 5824 5828 5830 5834 5839 5843 5845 5849 5850 5852 5854 5855 5857 5857 5858 5859 5860 5859 5860 5860 5860 5859 5859 5858 5856 5856 5854 5853 5851 5849 5847 5845 5843 5840 5837
5753 5757 5759 5762 5763 5771 5772 5775 5783 5789 5797 5804 5809 5812 5818 5822 5825 5828 5834 5837 5841 5842 5843 5847 5848 5849 5851 5853 5854 5855 5855 5854 5854 5855 5854 5853 5852 5851 5851 5848 5847 5845 5844 5841 5838 5835 5833 5831 5829
5746 5747 5747 5750 5751 5755 5765 5768 5779 5781 5789 5800 5802 5803 5809 5814 5818 5821 5827 5830 5834 5834 5836 5839 5842 5843 5845 5846 5849 5849 5850 5848 5847 5848 5847 5847 5846 5845 5844 5842 5840 5838 5836 5834 5832 5829 5825 5822 5819
5732 5737 5740 5741 5740 5741 5765 5761 5764 5777 5784 5785 5790 5796 5801 5806 5810 5813 5818 5822 5826 5827 5829 5831 5834 5835 5837 5839 5841 5842 5843 5842 5842 5841 5840 5840 5839 5837 5835 5834 5832 5830 5828 5826 5823 5820 5817 5813 5809
5723 5727 5727 5727 5726 5744 5750 5743 5761 5768 5773 5776 5777 5784 5789 5795 5799 5801 5806 5812 5816 5818 5821 5823 5826 5828 5829 5830 5833 5833 5835 5834 5834 5834 5833 5831 5831 5829 5827 5825 5823 5821 5819 5816 5813 5810 5806 5802 5799
5710 5711 5716 5719 5721 5738 5734 5735 5758 5757 5762 5767 5766 5772 5777 5784 5790 5792 5799 5804 5807 5810 5813 5816 5819 5820 5821 5821 5823 5824 5824 5825 5826 5825 5824 5823 5822 5820 5818 5815 5813 5811 5808 5805 5803 5799 5796 5792 5788
5698 5696 5712 5707 5711 5718 5722 5736 5746 5747 5753 5760 5761 5763 5770 5773 5779 5783 5789 5794 5798 5802 5805 5807 5810 5813 5814 5814 5815 5815 5814 5815 5816 5815 5815 5813 5812 5809 5807 5805 5804 5801 5799 5796 5792 5789 5785 5781 5777
5688 5699 5696 5695 5700 5706 5713 5724 5737 5742 5742 5750 5752 5754 5759 5764 5770 5774 5778 5783 5787 5791 5794 5797 5800 5802 5804 5805 5806 5807 5806 5805 5806 5805 5804 5803 5802 5799 5798 5795 5794 5791 5789 5786 5782 5779 5775 5771 5765
5682 5683 5685 5690 5690 5697 5705 5712 5728 5733 5734 5736 5741 5742 5746 5752 5758 5762 5766 5770 5775 5779 5782 5785 5789 5791 5793 5794 5795 5796 5796 5796 5796 5795 5794 5793 5791 5790 5788 5786 5784 5781 5778 5775 5771 5767 5762 5758 5752
5671 5675 5677 5677 5688 5687 5687 5700 5717 5722 5721 5723 5730 5731 5734 5739 5744 5749 5754 5758 5763 5767 5770 5774 5777 5779 5781 5782 5783 5785 5785 5786 5786 5785 5783 5782 5781 5779 5778 5775 5772 5770 5766 5762 5758 5753 5749 5745 5741